1494223200.52,21391,15.5,72704.5,4.33,-28.85,-31.85,0,*79
1494223201.78,21392,15.5,72706.8,4.31,-29.45,-33.09,0,*73
1494223203.04,21393,15.5,72710.3,4.31,-30.17,-33.37,0,*70
1494223204.27,21394,15.5,72708.0,4.33,-30.11,-33.27,0,*72
1494223205.53,21395,15.5,72710.5,4.31,-29.61,-32.45,0,*7B
1494223206.78,21396,15.5,72708.0,4.31,-30.17,-33.15,0,*75
1494223208.06,21397,15.5,72714.0,4.31,-30.95,-33.89,0,*7B
1494223209.28,21398,15.5,72710.0,4.33,-32.29,-35.17,0,*72
1494223210.55,21399,15.5,72712.5,4.31,-32.29,-34.83,0,*7D
1494223211.8,21400,15.44,72714.3,4.33,-31.91,-34.19,0,*7B
1494223213.07,21401,15.5,72718.5,4.31,-31.73,-34.19,0,*74
1494223214.32,21402,15.5,72718.3,4.31,-31.73,-34.07,0,*78
1494223215.55,21403,15.5,72716.3,4.29,-31.45,-33.61,0,*72
1494223216.77,21404,15.5,72716.0,4.27,-31.05,-33.27,0,*7D
1494223218.01,21405,15.5,72716.5,4.29,-30.67,-32.85,0,*7E
1494223219.23,21406,15.5,72718.0,4.29,-31.91,-34.07,0,*79
1494223220.51,21407,15.5,72722.5,4.31,-30.95,-32.97,0,*7B
1494223221.79,21408,15.5,72718.0,4.31,-31.39,-33.49,0,*71
1494223223.04,21409,15.5,72716.3,4.31,-31.33,-33.31,0,*75
1494223224.3,21410,15.5,72720.3,4.31,-31.05,-33.27,0,*7F
1494223225.55,21411,15.5,72722.5,4.33,-30.17,-32.63,0,*7F
1494223226.78,21412,15.5,72720.3,4.33,-30.33,-32.79,0,*71
1494223228.03,21413,15.5,72716.3,4.31,-30.95,-33.55,0,*71
1494223229.24,21414,15.44,72714.0,4.33,-30.83,-33.37,0,*77
1494223230.46,21415,15.44,72714.5,4.33,-31.57,-34.25,0,*7A
1494223231.71,21416,15.5,72718.8,4.31,-31.91,-34.07,0,*71
1494223232.96,21417,15.44,72712.8,4.31,-31.33,-33.49,0,*75
1494223234.21,21418,15.5,72716.8,4.31,-31.01,-33.09,0,*7F
1494223235.47,21419,15.5,72718.0,4.33,-31.85,-34.01,0,*7F
1494223236.72,21420,15.5,72718.0,4.29,-31.57,-33.61,0,*70
1494223237.95,21421,15.5,72716.3,4.29,-30.55,-32.51,0,*70
1494223239.21,21422,15.5,72716.8,4.31,-30.83,-32.75,0,*77
1494223240.43,21423,15.5,72718.5,4.31,-30.45,-32.57,0,*7C
1494223241.66,21424,15.5,72716.3,4.33,-31.39,-33.37,0,*74
1494223242.92,21425,15.5,72718.3,4.31,-31.73,-33.67,0,*7C
1494223244.2,21426,15.5,72716.8,4.31,-31.39,-33.27,0,*75
1494223245.45,21427,15.44,72718.3,4.33,-30.61,-32.75,0,*7C
1494223246.65,21428,15.5,72718.8,4.33,-31.05,-33.67,0,*72
1494223247.91,21429,15.5,72720.8,4.31,-32.01,-34.53,0,*76
1494223249.17,21430,15.44,72720.8,4.31,-33.09,-35.47,0,*73
1494223250.41,21431,15.5,72722.3,4.29,-32.29,-34.31,0,*78
1494223251.62,21432,15.5,72716.5,4.29,-31.29,-33.21,0,*7E
1494223252.85,21433,15.5,72716.0,4.29,-32.51,-34.65,0,*74
1494223254.09,21434,15.5,72718.0,4.27,-32.29,-34.01,0,*70
1494223255.32,21435,15.5,72718.8,4.29,-31.39,-33.21,0,*78
1494223256.55,21436,15.44,72716.0,4.29,-31.05,-32.79,0,*78
1494223257.77,21437,15.5,72718.0,4.29,-31.05,-32.63,0,*72
1494223259.02,21438,15.44,72716.3,4.27,-32.85,-34.53,0,*7D
1494223260.22,21439,15.44,72718.3,4.27,-31.79,-33.37,0,*79
1494223261.47,21440,15.44,72716.0,4.27,-31.95,-33.43,0,*76
1494223262.73,21441,15.44,72716.3,4.29,-31.23,-32.85,0,*7F
1494223263.95,21442,15.44,72716.8,4.29,-31.39,-33.03,0,*78
1494223265.2,21443,15.5,72720.0,4.29,-32.29,-33.61,0,*7F
1494223266.46,21444,15.5,72726.5,4.31,-30.77,-32.39,0,*74
1494223267.74,21445,15.5,72720.5,4.31,-31.85,-33.49,0,*7F
1494223269.01,21446,15.5,72722.8,4.31,-32.29,-34.19,0,*7B
1494223270.2,21447,15.44,72720.0,4.33,-31.67,-33.15,0,*7A
1494223271.49,21448,15.5,72722.5,4.31,-31.23,-32.75,0,*70
1494223272.72,21449,15.44,72722.5,4.33,-31.39,-32.91,0,*72
1494223273.95,21450,15.44,72722.8,4.33,-31.23,-32.57,0,*7B
1494223275.18,21451,15.44,72724.8,4.33,-32.07,-33.67,0,*7D
1494223276.43,21452,15.44,72724.3,4.33,-32.19,-33.73,0,*74
1494223277.69,21453,15.44,72726.0,4.33,-31.57,-33.09,0,*71
1494223278.94,21454,15.44,72724.3,4.33,-30.95,-32.63,0,*74
1494223280.18,21455,15.44,72726.3,4.33,-31.23,-32.91,0,*74
1494223281.43,21456,15.5,72728.5,4.35,-31.45,-33.09,0,*71
1494223282.67,21457,15.44,72724.3,4.35,-32.13,-33.61,0,*7E
1494223283.9,21458,15.44,72720.5,4.33,-31.39,-32.91,0,*72
1494223285.13,21459,15.5,72724.8,4.35,-31.17,-32.69,0,*7E
1494223286.38,21460,15.5,72726.5,4.35,-31.17,-32.75,0,*79
1494223287.63,21461,15.44,72722.8,4.35,-32.01,-33.61,0,*78
1494223288.88,21462,15.5,72730.8,4.35,-31.29,-32.75,0,*76
1494223290.16,21463,15.44,72726.3,4.39,-31.61,-33.27,0,*71
1494223291.41,21464,15.44,72724.5,4.35,-30.77,-32.01,0,*79
1494223292.61,21465,15.44,72726.0,4.41,-30.33,-31.29,0,*72
1494223293.86,21466,15.5,72730.0,4.41,-30.05,-31.11,0,*7F
1494223295.1,21467,15.44,72726.3,4.43,-29.79,-31.39,0,*75
1494223296.36,21468,15.44,72728.5,4.43,-31.23,-32.91,0,*7D
1494223297.59,21469,15.44,72726.3,4.45,-30.83,-32.07,0,*7E
1494223298.84,21470,15.44,72726.8,4.47,-30.61,-31.79,0,*72
1494223300.04,21471,15.44,72724.5,4.49,-31.79,-33.15,0,*7D
1494223301.29,21472,15.44,72730.3,4.47,-30.95,-32.23,0,*77
1494223302.57,21473,15.44,72726.0,4.47,-30.61,-31.95,0,*73
1494223303.79,21474,15.44,72724.3,4.47,-31.67,-32.91,0,*74
1494223305.07,21475,15.44,72726.5,4.47,-30.95,-32.19,0,*79
1494223306.3,21476,15.44,72726.5,4.49,-30.77,-32.01,0,*71
1494223307.54,21477,15.44,72728.8,4.51,-30.95,-32.35,0,*72
1494223308.78,21478,15.44,72728.3,4.51,-31.05,-32.29,0,*78
1494223310.02,21479,15.44,72730.0,4.51,-30.55,-31.79,0,*7B
1494223311.28,21480,15.5,72728.5,4.53,-30.01,-31.23,0,*71
1494223312.51,21481,15.44,72730.3,4.55,-29.67,-30.27,0,*7B
1494223313.76,21482,15.44,72730.3,4.55,-28.91,-31.05,0,*71
1494223315.02,21483,15.44,72724.3,4.55,-29.61,-31.51,0,*7F
1494223316.28,21484,15.44,72726.8,4.55,-29.29,-30.83,0,*7A
1494223317.5,21485,15.44,72726.5,4.57,-30.61,-32.51,0,*70
1494223318.71,21486,15.5,72724.3,4.61,-30.83,-32.39,0,*74
1494223319.97,21487,15.5,72728.5,4.63,-30.77,-32.51,0,*72
1494223321.2,21488,15.44,72726.8,4.57,-31.45,-32.85,0,*73
1494223322.4,21489,15.44,72732.5,4.61,-31.17,-32.57,0,*7F
1494223323.66,21490,15.44,72730.5,4.61,-31.61,-33.27,0,*70
1494223324.92,21491,15.44,72730.3,4.61,-32.07,-33.49,0,*7A
1494223326.12,21492,15.44,72732.3,4.61,-31.17,-32.69,0,*78
1494223327.36,21493,15.44,72734.8,4.57,-31.45,-32.75,0,*76
1494223328.55,21494,15.44,72734.3,4.57,-31.29,-32.57,0,*7B
1494223329.82,21495,15.44,72732.3,4.63,-30.89,-32.29,0,*7F
1494223331.1,21496,15.44,72732.0,4.63,-31.39,-32.63,0,*78
1494223332.38,21497,15.44,72734.5,4.63,-30.73,-32.19,0,*7B
1494223333.63,21498,15.44,72732.0,4.61,-30.61,-32.07,0,*7A
1494223334.83,21499,15.44,72730.5,4.61,-31.17,-32.57,0,*7E
1494223336.11,21500,15.44,72734.0,4.63,-31.39,-32.85,0,*7E
1494223337.34,21501,15.44,72736.0,4.63,-31.05,-32.51,0,*79
1494223338.56,21502,15.44,72732.0,4.65,-30.23,-30.61,0,*78
1494223339.76,21503,15.44,72732.8,4.65,-28.69,-28.69,0,*7F
1494223341.01,21504,15.44,72724.8,4.65,-26.33,-26.93,0,*72
1494223342.27,21505,15.44,72724.3,4.63,-22.97,-26.13,0,*77
1494223343.55,21506,15.44,72730.0,4.63,-23.33,-26.29,0,*72
1494223344.83,21507,15.44,72728.5,4.63,-25.75,-30.73,0,*7F
1494223346.07,21508,15.44,72728.8,4.63,-28.53,-31.45,0,*7D
1494223347.3,21509,15.44,72732.8,4.63,-29.45,-31.79,0,*75
1494223348.58,21510,15.44,72732.3,4.63,-29.73,-31.95,0,*7A
1494223349.83,21511,15.44,72728.5,4.65,-31.95,-33.73,0,*76
1494223351.11,21512,15.5,72734.0,4.63,-30.39,-31.95,0,*7E
1494223352.35,21513,15.44,72732.3,4.65,-30.17,-30.95,0,*74
1494223353.57,21514,15.44,72730.5,4.65,-28.85,-29.29,0,*7E
1494223354.79,21515,15.44,72734.8,4.67,-25.91,-27.55,0,*70
1494223356.03,21516,15.44,72730.0,4.69,-26.03,-28.91,0,*72
1494223357.25,21517,15.44,72732.0,4.69,-25.55,-26.49,0,*78
1494223358.49,21518,15.44,72728.3,4.69,-23.75,-25.97,0,*73
1494223359.72,21519,15.44,72732.8,4.69,-25.65,-28.05,0,*73
1494223360.96,21520,15.44,72732.5,4.69,-28.75,-27.19,0,*77
1494223362.22,21521,15.44,72728.3,4.67,-28.25,-27.55,0,*75
1494223363.44,21522,15.44,72724.3,4.67,-27.55,-29.83,0,*7B
1494223364.73,21523,15.44,72726.5,4.67,-27.61,-29.51,0,*72
1494223365.96,21524,15.44,72722.8,4.69,-27.35,-28.15,0,*7B
1494223367.15,21525,15.44,72726.0,4.69,-25.19,-25.23,0,*7E
1494223368.38,21526,15.44,72724.8,4.69,-24.41,-27.13,0,*70
1494223369.66,21527,15.44,72734.3,4.67,-25.71,-28.91,0,*78
1494223370.88,21528,15.44,72734.3,4.67,-26.87,-30.11,0,*7C
1494223372.16,21529,15.44,72732.8,4.67,-28.47,-31.39,0,*74
1494223373.43,21530,15.44,72734.3,4.67,-28.47,-30.51,0,*73
1494223374.69,21531,15.44,72726.0,4.67,-29.45,-27.23,0,*72
1494223375.91,21532,15.44,72724.5,4.67,-24.61,-24.77,0,*78
1494223377.17,21533,15.44,72722.8,4.67,-23.95,-22.63,0,*76
1494223378.45,21534,15.44,72720.3,4.67,-20.79,-17.41,0,*76
1494223379.67,21535,15.44,72724.5,4.67,-17.31,-13.65,0,*7D
1494223380.86,21536,15.44,72724.0,4.69,-15.49,-12.39,0,*75
1494223382.11,21537,15.44,72726.5,4.69,-12.71,-11.33,0,*71
1494223383.36,21538,15.44,72716.5,4.69,-12.83,-14.01,0,*77
1494223384.58,21539,15.44,72716.0,4.69,-15.11,-20.53,0,*7A
1494223385.84,21540,15.44,72718.0,4.67,-19.27,-24.05,0,*74
1494223387.05,21541,15.44,72714.8,4.65,-17.35,-20.39,0,*71
1494223388.31,21542,15.44,72720.3,4.63,-19.13,-27.23,0,*72
1494223389.59,21543,15.44,72726.3,4.63,-23.85,-30.01,0,*73
1494223390.85,21544,15.44,72728.8,4.63,-27.77,-31.61,0,*7A
1494223392.1,21545,15.44,72724.5,4.63,-26.45,-26.33,0,*7A
1494223393.32,21546,15.44,72724.3,4.65,-25.75,-27.77,0,*7E
1494223394.52,21547,15.44,72722.8,4.65,-26.23,-28.15,0,*74
1494223395.75,21548,15.44,72718.5,4.63,-27.07,-29.67,0,*7E
1494223397.0,21549,15.44,72718.5,4.65,-26.97,-25.81,0,*75
1494223398.23,21550,15.44,72720.8,4.65,-25.13,-26.97,0,*76
1494223399.48,21551,15.44,72720.0,4.65,-27.61,-31.39,0,*72
1494223400.71,21552,15.44,72726.5,4.65,-29.57,-32.29,0,*78
1494223401.96,21553,15.44,72720.8,4.63,-30.51,-32.51,0,*7E
1494223403.19,21554,15.44,72720.8,4.65,-31.29,-32.79,0,*7B
1494223404.41,21555,15.44,72720.5,4.65,-31.79,-32.63,0,*74
1494223405.65,21556,15.44,72724.8,4.63,-31.79,-32.69,0,*7B
1494223406.9,21557,15.44,72718.8,4.63,-31.61,-33.21,0,*7E
1494223408.18,21558,15.44,72722.3,4.63,-31.85,-33.27,0,*7D
1494223409.44,21559,15.44,72720.8,4.63,-31.45,-32.45,0,*75
1494223410.71,21560,15.44,72720.0,4.63,-30.55,-31.11,0,*7D
1494223411.93,21561,15.44,72712.8,4.65,-30.55,-27.67,0,*7C
1494223413.13,21562,15.44,72712.0,4.65,-23.79,-19.99,0,*7F
1494223414.38,21563,15.44,72710.8,4.65,-17.79,-21.87,0,*7D
1494223415.61,21564,15.44,72710.0,4.65,-19.27,-26.07,0,*70
1494223416.83,21565,15.44,72710.8,4.65,-23.39,-30.51,0,*73
1494223418.06,21566,15.44,72712.0,4.61,-25.13,-27.83,0,*73
1494223419.3,21567,15.44,72712.5,4.57,-22.73,-24.15,0,*7A
1494223420.5,21568,15.44,72718.0,4.61,-20.39,-22.87,0,*71
1494223421.75,21569,15.44,72716.8,4.61,-17.63,-17.41,0,*77
1494223422.98,21570,15.44,72704.0,4.57,-15.25,-16.13,0,*7C
1494223424.21,21571,15.44,72698.8,4.53,-13.55,-16.17,0,*7C
1494223425.43,21572,15.44,72704.3,4.53,-15.81,-18.79,0,*76
1494223426.68,21573,15.44,72706.8,4.51,-16.23,-18.07,0,*77
1494223427.92,21574,15.44,72706.0,4.47,-14.97,-16.89,0,*72
1494223429.17,21575,15.44,72708.0,4.45,-13.87,-14.93,0,*7E
1494223430.39,21576,15.44,72712.5,4.45,-12.79,-13.73,0,*74
1494223431.62,21577,15.44,72706.0,4.45,-12.75,-12.89,0,*7D
1494223432.83,21578,15.44,72704.5,4.45,-11.45,-12.29,0,*78
1494223434.08,21579,15.44,72712.8,4.43,-11.33,-12.93,0,*7F
1494223435.36,21580,15.44,72714.3,4.43,-11.93,-15.01,0,*7F
1494223436.58,21581,15.44,72708.0,4.41,-13.11,-17.59,0,*7B
1494223437.84,21582,15.44,72712.5,4.41,-13.97,-18.55,0,*75
1494223439.06,21583,15.44,72726.3,4.43,-16.03,-22.83,0,*7C
1494223440.31,21584,15.44,72714.5,4.41,-23.65,-30.95,0,*7B
1494223441.53,21585,15.44,72716.3,4.41,-26.07,-30.51,0,*73
1494223442.79,21586,15.44,72720.0,4.39,-25.55,-28.15,0,*72
1494223444.04,21587,15.44,72718.5,4.35,-29.35,-32.01,0,*7B
1494223445.27,21588,15.44,72708.3,4.31,-29.07,-27.55,0,*74
1494223446.5,21589,15.44,72708.8,4.31,-25.39,-24.93,0,*7D
1494223447.78,21590,15.44,72708.8,4.31,-24.11,-25.03,0,*76
1494223449.01,21591,15.44,72710.3,4.29,-25.61,-26.71,0,*7E
1494223450.23,21592,15.44,72714.5,4.29,-23.99,-27.71,0,*7D
1494223451.46,21593,15.44,72714.8,4.27,-24.05,-27.19,0,*7E
1494223452.68,21594,15.44,72714.0,4.27,-26.49,-32.19,0,*77
1494223453.9,21595,15.44,72710.3,4.27,-29.83,-33.61,0,*71
1494223455.12,21596,15.44,72704.8,4.27,-27.51,-26.33,0,*70
1494223456.38,21597,15.44,72710.0,4.29,-21.87,-20.99,0,*74
1494223457.58,21598,15.44,72716.8,4.29,-18.17,-18.99,0,*73
1494223458.81,21599,15.44,72714.8,4.29,-17.79,-19.37,0,*70
1494223460.03,21600,15.44,72712.5,4.27,-18.07,-21.67,0,*75
1494223461.25,21601,15.44,72716.0,4.27,-21.13,-28.05,0,*76
1494223462.47,21602,15.44,72716.3,4.27,-25.13,-31.61,0,*7B
1494223463.7,21603,15.44,72716.0,4.27,-28.15,-31.95,0,*7A
1494223464.9,21604,15.44,72718.5,4.27,-29.83,-32.91,0,*74
1494223466.13,21605,15.44,72720.0,4.29,-29.79,-31.95,0,*79
1494223467.38,21606,15.44,72718.8,4.31,-30.33,-31.91,0,*71
1494223468.64,21607,15.44,72722.5,4.31,-29.95,-31.23,0,*7D
1494223469.87,21608,15.44,72720.5,4.33,-30.01,-29.57,0,*7F
1494223471.12,21609,15.44,72718.3,4.35,-28.53,-26.97,0,*75
1494223472.33,21610,15.44,72718.8,4.33,-27.55,-30.45,0,*7A
1494223473.53,21611,15.44,72720.3,4.33,-29.23,-32.23,0,*76
1494223474.74,21612,15.44,72714.0,4.33,-28.85,-31.05,0,*7F
1494223475.96,21613,15.44,72714.5,4.35,-30.23,-32.35,0,*7D
1494223477.23,21614,15.44,72722.5,4.39,-30.55,-32.75,0,*73
1494223478.46,21615,15.44,72720.3,4.35,-31.45,-33.03,0,*7E
1494223479.71,21616,15.44,72722.3,4.39,-31.11,-32.35,0,*74
1494223480.95,21617,15.44,72722.5,4.39,-30.89,-32.01,0,*72
1494223482.16,21618,15.44,72716.3,4.41,-29.67,-29.83,0,*7A
1494223483.39,21619,15.44,72720.5,4.41,-29.61,-30.17,0,*78
1494223484.61,21620,15.44,72722.8,4.43,-30.45,-32.23,0,*7B
1494223485.84,21621,15.44,72722.3,4.41,-30.67,-31.91,0,*72
1494223487.07,21622,15.44,72720.3,4.43,-30.45,-31.57,0,*79
1494223488.3,21623,15.44,72722.0,4.45,-31.01,-32.07,0,*79
1494223489.51,21624,15.44,72720.0,4.45,-30.67,-30.83,0,*71
1494223490.72,21625,15.44,72716.3,4.47,-30.45,-29.23,0,*70
1494223491.95,21626,15.44,72718.0,4.47,-30.27,-28.85,0,*7A
1494223493.21,21627,15.44,72720.0,4.49,-28.21,-26.71,0,*7F
1494223494.45,21628,15.44,72720.0,4.51,-27.51,-25.29,0,*7F
1494223495.71,21629,15.44,72716.8,4.53,-26.29,-26.77,0,*7A
1494223496.93,21630,15.44,72716.5,4.53,-27.93,-29.73,0,*79
1494223498.16,21631,15.44,72716.3,4.55,-30.67,-32.57,0,*7F
1494223499.4,21632,15.44,72718.3,4.55,-30.73,-32.13,0,*79
1494223500.68,21633,15.44,72720.0,4.55,-30.61,-31.23,0,*7B
1494223501.91,21634,15.44,72718.3,4.55,-30.27,-31.17,0,*79
1494223503.13,21635,15.44,72716.3,4.55,-31.01,-32.23,0,*79
1494223504.36,21636,15.44,72718.0,4.57,-30.95,-32.23,0,*74
1494223505.58,21637,15.44,72716.5,4.57,-30.83,-31.85,0,*7D
1494223506.78,21638,15.44,72720.3,4.61,-31.01,-32.35,0,*74
1494223507.99,21639,15.44,72718.3,4.61,-31.33,-32.51,0,*76
1494223509.22,21640,15.44,72718.3,4.61,-31.67,-32.85,0,*70
1494223510.48,21641,15.44,72718.8,4.63,-31.61,-32.69,0,*77
1494223511.73,21642,15.44,72720.8,4.63,-31.11,-32.35,0,*7A
1494223513.01,21643,15.44,72720.5,4.63,-31.61,-32.63,0,*7F
1494223514.29,21644,15.44,72726.0,4.63,-32.19,-33.43,0,*77
1494223515.58,21645,15.44,72720.0,4.63,-31.85,-33.09,0,*7E
1494223516.82,21646,15.44,72722.8,4.63,-32.45,-33.55,0,*7B
1494223518.04,21647,15.44,72722.0,4.57,-32.35,-33.31,0,*78
1494223519.3,21648,15.44,72718.3,4.61,-33.31,-34.53,0,*74
1494223520.55,21649,15.44,72722.8,4.57,-32.19,-33.09,0,*73
1494223521.79,21650,15.44,72726.0,4.57,-32.85,-34.19,0,*78
1494223523.02,21651,15.44,72724.5,4.57,-32.51,-33.77,0,*7F
1494223524.26,21652,15.44,72722.5,4.55,-32.29,-33.55,0,*71
1494223525.48,21653,15.44,72722.8,4.53,-33.89,-35.17,0,*7D
1494223526.73,21654,15.44,72726.3,4.55,-32.39,-33.73,0,*72
1494223527.99,21655,15.44,72720.0,4.53,-31.73,-32.79,0,*73
1494223529.2,21656,15.44,72724.8,4.53,-31.45,-32.51,0,*7F
1494223530.4,21657,15.44,72722.5,4.53,-32.13,-33.21,0,*78
1494223531.65,21658,15.44,72722.5,4.53,-31.85,-32.97,0,*77
1494223532.88,21659,15.44,72722.0,4.55,-32.57,-33.55,0,*73
1494223534.1,21660,15.44,72722.8,4.57,-32.91,-34.01,0,*77
1494223535.32,21661,15.44,72722.3,4.53,-32.97,-34.07,0,*72
1494223536.58,21662,15.44,72720.0,4.53,-32.63,-33.73,0,*7E
1494223537.78,21663,15.44,72722.3,4.53,-32.01,-33.03,0,*7C
1494223539.0,21664,15.44,72722.5,4.51,-32.13,-33.21,0,*7A
1494223540.27,21665,15.44,72720.8,4.51,-32.63,-33.61,0,*78
1494223541.5,21666,15.44,72722.5,4.53,-31.05,-31.91,0,*77
1494223542.78,21667,15.44,72720.8,4.55,-31.73,-32.75,0,*78
1494223544.06,21668,15.44,72716.3,4.55,-31.85,-32.75,0,*7E
1494223545.31,21669,15.44,72718.3,4.55,-31.85,-32.57,0,*7F
1494223546.56,21670,15.44,72716.3,4.55,-31.33,-32.29,0,*73
1494223547.84,21671,15.44,72718.3,4.55,-31.85,-32.79,0,*7A
1494223549.12,21672,15.44,72716.8,4.55,-31.73,-32.79,0,*70
1494223550.34,21673,15.44,72720.3,4.61,-31.01,-31.85,0,*73
1494223551.57,21674,15.44,72720.5,4.57,-31.51,-32.51,0,*7E
1494223552.8,21675,15.44,72716.8,4.57,-30.67,-31.51,0,*78
1494223554.02,21676,15.44,72716.5,4.65,-30.95,-32.01,0,*71
1494223555.28,21677,15.44,72720.5,4.63,-30.61,-31.45,0,*7E
1494223556.53,21678,15.44,72720.8,4.63,-31.39,-32.23,0,*7E
1494223557.78,21679,15.44,72720.8,4.63,-30.55,-31.45,0,*77
1494223559.02,21680,15.44,72718.0,4.65,-30.51,-31.39,0,*78
1494223560.27,21681,15.44,72722.8,4.65,-31.39,-32.45,0,*7E
1494223561.51,21682,15.44,72722.0,4.67,-31.17,-32.29,0,*79
1494223562.77,21683,15.44,72720.8,4.67,-30.17,-31.01,0,*70
1494223564.03,21684,15.44,72722.8,4.73,-29.89,-30.77,0,*7D
1494223565.28,21685,15.44,72722.3,4.73,-30.89,-31.85,0,*78
1494223566.53,21686,15.44,72720.3,4.73,-30.73,-31.57,0,*71
1494223567.72,21687,15.44,72720.5,4.73,-30.23,-31.05,0,*72
1494223568.98,21688,15.44,72720.8,4.73,-30.05,-30.77,0,*7D
1494223570.25,21689,15.44,72722.3,4.75,-30.17,-30.95,0,*75
1494223571.48,21690,15.44,72722.0,4.77,-30.83,-31.73,0,*7B
1494223572.7,21691,15.44,72724.3,4.77,-30.51,-31.33,0,*71
1494223573.91,21692,15.44,72722.5,4.77,-30.27,-31.01,0,*72
1494223575.13,21693,15.44,72726.8,4.81,-30.33,-31.11,0,*7E
1494223576.35,21694,15.44,72726.3,4.81,-30.77,-31.67,0,*78
1494223577.58,21695,15.44,72726.5,4.81,-31.11,-32.01,0,*7B
1494223578.78,21696,15.44,72726.3,4.81,-30.27,-31.01,0,*7F
1494223580.03,21697,15.44,72722.8,4.81,-29.73,-30.51,0,*73
1494223581.3,21698,15.44,72726.5,4.87,-29.83,-30.61,0,*76
1494223582.57,21699,15.44,72724.3,4.87,-30.89,-31.85,0,*7E
1494223583.85,21700,15.44,72726.5,4.87,-31.23,-31.95,0,*7F
1494223585.14,21701,15.44,72726.3,4.87,-30.05,-30.77,0,*76
1494223586.38,21702,15.44,72724.5,4.89,-30.73,-31.61,0,*7C
1494223587.64,21703,15.44,72722.5,4.93,-30.33,-31.11,0,*75
1494223588.86,21704,15.44,72728.8,4.91,-30.27,-31.01,0,*74
1494223590.11,21705,15.44,72726.0,4.91,-30.51,-31.33,0,*75
1494223591.39,21706,15.44,72720.5,4.93,-31.39,-31.91,0,*73
1494223592.67,21707,15.44,72724.3,4.93,-30.95,-31.85,0,*70
1494223593.93,21708,15.44,72726.0,4.95,-30.95,-31.95,0,*78
1494223595.15,21709,15.44,72722.8,4.97,-30.27,-31.05,0,*7B
1494223596.42,21710,15.44,72722.0,4.97,-30.39,-31.11,0,*79
1494223597.62,21711,15.44,72724.5,4.95,-31.67,-32.57,0,*71
1494223598.88,21712,15.44,72722.8,4.95,-30.95,-31.95,0,*73
1494223600.13,21713,15.44,72720.8,4.97,-30.77,-31.79,0,*7E
1494223601.35,21714,15.44,72716.5,4.97,-31.29,-32.01,0,*7F
1494223602.58,21715,15.44,72720.8,4.99,-30.83,-31.61,0,*74
1494223603.81,21716,15.44,72722.3,4.99,-30.61,-31.45,0,*7D
1494223605.03,21717,15.44,72718.8,4.99,-30.67,-31.45,0,*7A
1494223606.26,21718,15.44,72720.0,4.99,-30.83,-31.73,0,*7A
1494223607.52,21719,15.44,72722.5,5.01,-31.39,-32.29,0,*77
1494223608.76,21720,15.44,72722.8,4.99,-31.29,-32.07,0,*70
1494223609.98,21721,15.44,72722.8,4.99,-31.01,-31.73,0,*7B
1494223611.21,21722,15.44,72722.3,4.99,-31.05,-31.95,0,*74
1494223612.43,21723,15.44,72722.8,4.99,-31.39,-32.23,0,*74
1494223613.63,21724,15.44,72722.8,5.03,-31.33,-32.01,0,*7B
1494223614.88,21725,15.44,72722.5,5.01,-30.95,-31.67,0,*76
1494223616.13,21726,15.44,72724.5,5.01,-31.67,-32.63,0,*7E
1494223617.38,21727,15.44,72722.8,5.03,-30.77,-31.51,0,*7F
1494223618.6,21728,15.44,72720.8,5.01,-30.45,-31.01,0,*76
1494223619.82,21729,15.44,72722.5,5.03,-30.51,-31.33,0,*71
1494223621.04,21730,15.44,72722.3,5.03,-31.57,-32.57,0,*7F
1494223622.29,21731,15.44,72722.8,5.03,-30.95,-31.85,0,*7D
1494223623.53,21732,15.44,72718.0,5.07,-31.61,-32.51,0,*7A
1494223624.73,21733,15.44,72718.8,5.07,-31.29,-32.01,0,*72
1494223625.95,21734,15.44,72716.8,5.07,-30.95,-31.79,0,*7F
1494223627.15,21735,15.44,72718.5,5.07,-31.05,-31.79,0,*76
1494223628.37,21736,15.44,72718.5,5.07,-31.51,-32.23,0,*78
1494223629.59,21737,15.44,72716.8,5.07,-31.05,-31.85,0,*77
1494223630.84,21738,15.44,72718.3,5.09,-31.61,-32.23,0,*7B
1494223632.07,21739,15.44,72716.5,5.07,-31.33,-31.95,0,*7D
1494223633.32,21740,15.44,72716.8,5.07,-33.49,-34.35,0,*73
1494223634.57,21741,15.44,72716.0,5.01,-33.27,-34.07,0,*7D
1494223635.82,21742,15.44,72714.5,5.01,-34.59,-35.35,0,*70
1494223637.06,21743,15.44,72718.3,4.97,-32.69,-33.37,0,*7E
1494223638.34,21744,15.38,72712.0,4.97,-31.11,-31.95,0,*7F
1494223639.57,21745,15.44,72716.0,4.99,-30.67,-31.57,0,*7E
1494223640.79,21746,15.44,72716.8,4.99,-31.01,-31.73,0,*7A
1494223642.07,21747,15.44,72718.0,5.01,-31.23,-31.91,0,*77
1494223643.31,21748,15.44,72718.0,5.01,-30.83,-31.57,0,*79
1494223644.59,21749,15.38,72714.5,5.01,-30.77,-31.51,0,*75
1494223645.84,21750,15.44,72718.3,5.01,-31.17,-31.85,0,*73
1494223647.04,21751,15.44,72714.5,5.03,-31.67,-32.39,0,*73
1494223648.29,21752,15.44,72718.0,5.01,-30.83,-31.57,0,*72
1494223649.54,21753,15.44,72718.0,5.01,-32.57,-33.43,0,*7F
1494223650.79,21754,15.44,72716.0,5.01,-31.33,-32.07,0,*78
1494223652.05,21755,15.44,72718.0,5.03,-30.77,-31.51,0,*7A
1494223653.3,21756,15.44,72718.3,5.03,-32.19,-33.09,0,*7C
1494223654.55,21757,15.44,72720.5,5.01,-31.23,-32.01,0,*7C
1494223655.78,21758,15.38,72718.3,5.01,-30.83,-31.67,0,*7B
1494223656.98,21759,15.38,72716.5,5.03,-30.83,-31.33,0,*79
1494223658.23,21760,15.44,72716.3,5.07,-30.95,-31.85,0,*7D
1494223659.46,21761,15.44,72722.8,5.07,-31.29,-31.85,0,*7A
1494223660.68,21762,15.44,72722.8,5.07,-31.17,-31.95,0,*75
1494223661.88,21763,15.44,72718.8,5.07,-31.79,-32.57,0,*71
1494223663.08,21764,15.44,72720.8,5.07,-31.29,-32.01,0,*70
1494223664.36,21765,15.38,72716.8,5.09,-30.77,-31.61,0,*70
1494223665.61,21766,15.38,72718.8,5.07,-30.73,-31.51,0,*7A
1494223666.84,21767,15.44,72722.3,5.07,-31.17,-31.95,0,*70
1494223668.06,21768,15.44,72720.0,5.07,-31.51,-32.35,0,*74
1494223669.26,21769,15.44,72718.8,5.07,-32.39,-33.37,0,*7B
1494223670.52,21770,15.44,72720.0,5.07,-31.95,-32.75,0,*71
1494223671.78,21771,15.44,72716.3,5.07,-32.19,-32.85,0,*78
1494223672.98,21772,15.44,72718.0,5.03,-31.33,-32.01,0,*78
1494223674.22,21773,15.44,72718.5,5.07,-30.39,-30.95,0,*79
1494223675.45,21774,15.44,72718.0,5.07,-31.33,-32.19,0,*73
1494223676.69,21775,15.44,72716.8,5.09,-30.73,-31.67,0,*73
1494223677.94,21776,15.38,72714.5,5.09,-31.11,-31.79,0,*7A
1494223679.17,21777,15.44,72712.8,5.09,-31.67,-32.39,0,*7D
1494223680.4,21778,15.44,72718.3,5.07,-32.19,-33.03,0,*7E
1494223681.64,21779,15.38,72710.8,5.09,-31.05,-31.61,0,*79
1494223682.92,21780,15.38,72714.3,5.09,-31.11,-31.95,0,*71
1494223684.18,21781,15.44,72714.5,5.09,-30.77,-31.45,0,*7C
1494223685.4,21782,15.44,72714.3,5.11,-30.51,-31.05,0,*76
1494223686.65,21783,15.38,72708.5,5.11,-31.61,-32.45,0,*72
1494223687.88,21784,15.38,72712.0,5.11,-31.29,-31.95,0,*77
1494223689.1,21785,15.44,72712.5,5.11,-31.57,-32.35,0,*76
1494223690.32,21786,15.44,72716.0,5.11,-31.05,-31.61,0,*70
1494223691.6,21787,15.38,72712.0,5.13,-30.61,-31.23,0,*76
1494223692.87,21788,15.44,72714.8,5.13,-30.61,-31.23,0,*79
1494223694.12,21789,15.38,72714.3,5.13,-30.77,-31.33,0,*7E
1494223695.37,21790,15.44,72718.3,5.13,-31.57,-32.39,0,*7C
1494223696.61,21791,15.38,72714.3,5.13,-30.61,-31.33,0,*70
1494223697.83,21792,15.44,72716.3,5.15,-31.57,-32.13,0,*70
1494223699.06,21793,15.38,72718.3,5.15,-31.33,-31.91,0,*7A
1494223700.31,21794,15.38,72714.8,5.15,-30.77,-31.39,0,*7E
1494223701.57,21795,15.44,72716.0,5.15,-31.23,-31.91,0,*7D
1494223702.79,21796,15.38,72714.5,5.17,-32.01,-32.57,0,*76
1494223704.01,21797,15.44,72714.5,5.17,-31.33,-32.01,0,*76
1494223705.26,21798,15.38,72712.0,5.17,-31.33,-31.95,0,*77